, AK

(GMT )
Valdez Airport

Weather History for PAVD - August, 2013

Change the Weather History Date:

Sunday, August 25, 2013

  Actual Average Record
Temperature  
Mean Temperature 55 °F -  
Max Temperature 66 °F 60 °F 74 °F (1978)
Min Temperature 44 °F 45 °F 34 °F (1965)
Degree Days  
Heating Degree Days 10    
Growing Degree Days 5 (Base 50)    
Moisture  
Dew Point 37 °F    
Average Humidity 48    
Maximum Humidity 76    
Minimum Humidity 32    
Precipitation  
Precipitation 0.00 in - - ()
Sea Level Pressure  
Sea Level Pressure 29.70 in    
Wind  
Wind Speed 5 mph (WNW)    
Max Wind Speed 16 mph    
Max Gust Speed 28 mph    
Visibility 10 miles    
Events      
Averages and records for this station are not official NWS values.
T = Trace of Precipitation, MM = Missing Value Source: NWS Daily Summary

Daily Weather History Graph

Daily Weather History Graph

Search for Another Location

Airport or City:

Astronomy

Aug. 25, 2013 Rise Set
Actual Time 6:20 AM AKDT 9:11 PM AKDT
Civil Twilight 5:31 AM AKDT 10:00 PM AKDT
Nautical Twilight 4:22 AM AKDT 11:07 PM AKDT
Astronomical Twilight 2:17 AM AKDT 1:00 AM AKDT
Moon 10:00 PM AKDT (8/25) 1:16 PM AKDT (8/25)
Length of Visible Light 16h 29m
Length of Day
14h 51m
Waning Gibbous, 74% of the Moon is Illuminated
Aug 25
Waning Gibbous
Aug 28
Last Quarter
Sep 5
New
Sep 12
First Quarter
Sep 19
Full

Hourly Weather History & Observations

Time (AKDT) Temp. Windchill Dew Point Humidity Pressure Visibility Wind Dir Wind Speed Gust Speed Precip Events Conditions
12:16 AM 64.4 °F - 33.8 °F 32% 29.65 in 10.0 mi NE 16.1 mph 27.6 mph N/A   Clear
12:36 AM 64.4 °F - 33.8 °F 32% 29.65 in 10.0 mi NNE 6.9 mph 21.9 mph N/A   Clear
12:56 AM 64.4 °F - 33.8 °F 32% 29.66 in 10.0 mi North 6.9 mph 24.2 mph N/A   Clear
1:16 AM 62.6 °F - 33.8 °F 34% 29.66 in 10.0 mi WNW 6.9 mph - N/A   Clear
1:36 AM 60.8 °F - 33.8 °F 36% 29.66 in 10.0 mi NW 3.5 mph - N/A   Clear
1:56 AM 60.8 °F - 33.8 °F 36% 29.67 in 10.0 mi Calm Calm - N/A   Clear
2:16 AM 55.4 °F - 35.6 °F 47% 29.67 in 10.0 mi Calm Calm - N/A   Clear
2:36 AM 60.8 °F - 33.8 °F 36% 29.67 in 10.0 mi East 5.8 mph - N/A   Clear
2:56 AM 55.4 °F - 35.6 °F 47% 29.68 in 10.0 mi North 5.8 mph - N/A   Clear
3:16 AM 55.4 °F - 35.6 °F 47% 29.68 in 10.0 mi Calm Calm - N/A   Clear
3:36 AM 59.0 °F - 35.6 °F 42% 29.68 in 10.0 mi West 4.6 mph - N/A   Clear
3:56 AM 55.4 °F - 35.6 °F 47% 29.68 in 10.0 mi NNW 9.2 mph - N/A   Clear
4:16 AM 55.4 °F - 35.6 °F 47% 29.68 in 10.0 mi West 4.6 mph - N/A   Clear
4:36 AM 55.4 °F - 35.6 °F 47% 29.68 in 10.0 mi Calm Calm - N/A   Clear
4:56 AM 53.6 °F - 35.6 °F 51% 29.69 in 10.0 mi South 6.9 mph - N/A   Clear
5:16 AM 53.6 °F - 35.6 °F 51% 29.68 in 10.0 mi WSW 5.8 mph - N/A   Clear
5:36 AM 53.6 °F - 35.6 °F 51% 29.69 in 10.0 mi SW 3.5 mph - N/A   Clear
5:56 AM 51.8 °F - 37.4 °F 58% 29.69 in 10.0 mi Calm Calm - N/A   Clear
6:16 AM 51.8 °F - 35.6 °F 54% 29.69 in 10.0 mi Calm Calm - N/A   Clear
6:36 AM 53.6 °F - 35.6 °F 51% 29.69 in 10.0 mi Calm Calm - N/A   Clear
6:56 AM 48.2 °F - 35.6 °F 62% 29.70 in 10.0 mi Calm Calm - N/A   Partly Cloudy
7:16 AM 50.0 °F - 37.4 °F 62% 29.70 in 10.0 mi Calm Calm - N/A   Partly Cloudy
7:36 AM 46.4 °F 45.2 °F 37.4 °F 71% 29.71 in 10.0 mi NNW 3.5 mph - N/A   Partly Cloudy
7:56 AM 50.0 °F - 37.4 °F 62% 29.71 in 10.0 mi East 3.5 mph - N/A   Partly Cloudy
8:16 AM 51.8 °F - 39.2 °F 62% 29.71 in 10.0 mi Calm Calm - N/A   Partly Cloudy
8:36 AM 53.6 °F - 37.4 °F 54% 29.71 in 10.0 mi Calm Calm - N/A   Partly Cloudy
8:56 AM 55.4 °F - 37.4 °F 51% 29.72 in 10.0 mi Calm Calm - N/A   Partly Cloudy
9:16 AM 57.2 °F - 37.4 °F 48% 29.72 in 10.0 mi Calm Calm - N/A   Partly Cloudy
9:36 AM 57.2 °F - 37.4 °F 48% 29.71 in 10.0 mi Calm Calm - N/A   Partly Cloudy
9:56 AM 59.0 °F - 35.6 °F 42% 29.71 in 10.0 mi Calm Calm - N/A   Clear
10:16 AM 60.8 °F - 35.6 °F 39% 29.71 in 10.0 mi Calm Calm - N/A   Clear
10:36 AM 60.8 °F - 37.4 °F 42% 29.70 in 10.0 mi Calm Calm - N/A   Clear
10:56 AM 60.8 °F - 37.4 °F 42% 29.70 in 10.0 mi Calm Calm - N/A   Clear
11:16 AM 62.6 °F - 37.4 °F 39% 29.70 in 10.0 mi Calm Calm - N/A   Clear
11:36 AM 62.6 °F - 37.4 °F 39% 29.70 in 10.0 mi Calm Calm - N/A   Clear
11:56 AM 62.6 °F - 37.4 °F 39% 29.70 in 10.0 mi Calm Calm - N/A   Clear
12:16 PM 64.4 °F - 37.4 °F 37% 29.70 in 10.0 mi Calm Calm - N/A   Clear
12:36 PM 64.4 °F - 37.4 °F 37% 29.70 in 10.0 mi Calm Calm - N/A   Clear
12:56 PM 64.4 °F - 37.4 °F 37% 29.70 in 10.0 mi WNW 4.6 mph - N/A   Partly Cloudy
1:16 PM 64.4 °F - 37.4 °F 37% 29.70 in 10.0 mi WSW 6.9 mph - N/A   Partly Cloudy
1:36 PM 64.4 °F - 35.6 °F 34% 29.70 in 10.0 mi West 4.6 mph - N/A   Partly Cloudy
1:56 PM 66.2 °F - 37.4 °F 35% 29.70 in 10.0 mi WNW 5.8 mph - N/A   Partly Cloudy
2:16 PM 64.4 °F - 39.2 °F 40% 29.69 in 10.0 mi West 6.9 mph - N/A   Partly Cloudy
2:36 PM 64.4 °F - 37.4 °F 37% 29.69 in 10.0 mi West 6.9 mph - N/A   Partly Cloudy
2:56 PM 64.4 °F - 37.4 °F 37% 29.69 in 10.0 mi WSW 4.6 mph - N/A   Partly Cloudy
3:16 PM 64.4 °F - 37.4 °F 37% 29.69 in 10.0 mi SW 4.6 mph - N/A   Partly Cloudy
3:36 PM 64.4 °F - 37.4 °F 37% 29.69 in 10.0 mi SW 5.8 mph - N/A   Partly Cloudy
3:56 PM 64.4 °F - 37.4 °F 37% 29.69 in 10.0 mi SW 4.6 mph - N/A   Partly Cloudy
4:16 PM 64.4 °F - 37.4 °F 37% 29.69 in 10.0 mi WSW 5.8 mph - N/A   Partly Cloudy
4:36 PM 64.4 °F - 37.4 °F 37% 29.68 in 10.0 mi West 6.9 mph - N/A   Partly Cloudy
4:56 PM 64.4 °F - 39.2 °F 40% 29.69 in 10.0 mi WSW 5.8 mph - N/A   Partly Cloudy
5:16 PM 64.4 °F - 39.2 °F 40% 29.68 in 10.0 mi West 9.2 mph - N/A   Partly Cloudy
5:36 PM 64.4 °F - 39.2 °F 40% 29.69 in 10.0 mi West 6.9 mph - N/A   Partly Cloudy
5:56 PM 64.4 °F - 39.2 °F 40% 29.69 in 10.0 mi West 9.2 mph - N/A   Partly Cloudy
6:16 PM 64.4 °F - 37.4 °F 37% 29.69 in 10.0 mi West 12.7 mph - N/A   Partly Cloudy
6:36 PM 64.4 °F - 37.4 °F 37% 29.69 in 10.0 mi West 12.7 mph - N/A   Partly Cloudy
6:56 PM 64.4 °F - 39.2 °F 40% 29.69 in 10.0 mi WNW 10.4 mph - N/A   Partly Cloudy
7:16 PM 64.4 °F - 35.6 °F 34% 29.70 in 10.0 mi WNW 12.7 mph - N/A   Partly Cloudy
7:36 PM 60.8 °F - 42.8 °F 52% 29.71 in 10.0 mi SE 6.9 mph - N/A   Partly Cloudy
7:56 PM 59.0 °F - 42.8 °F 55% 29.71 in 10.0 mi ESE 4.6 mph - N/A   Partly Cloudy
8:16 PM 57.2 °F - 41.0 °F 55% 29.72 in 10.0 mi ENE 5.8 mph - N/A   Partly Cloudy
8:36 PM 51.8 °F - 39.2 °F 62% 29.72 in 10.0 mi East 6.9 mph - N/A   Partly Cloudy
8:56 PM 48.2 °F - 39.2 °F 71% 29.73 in 10.0 mi East 5.8 mph - N/A   Partly Cloudy
9:16 PM 48.2 °F - 39.2 °F 71% 29.73 in 10.0 mi East 3.5 mph - N/A   Partly Cloudy
9:36 PM 48.2 °F - 37.4 °F 66% 29.74 in 10.0 mi East 5.8 mph - N/A   Partly Cloudy
9:56 PM 46.4 °F 43.5 °F 37.4 °F 71% 29.74 in 10.0 mi East 5.8 mph - N/A   Partly Cloudy
10:16 PM 46.4 °F 43.5 °F 39.2 °F 76% 29.74 in 10.0 mi ENE 5.8 mph - N/A   Clear
10:36 PM 46.4 °F 42.9 °F 37.4 °F 71% 29.75 in 10.0 mi East 6.9 mph - N/A   Clear
10:56 PM 46.4 °F 44.3 °F 39.2 °F 76% 29.75 in 10.0 mi ENE 4.6 mph - N/A   Scattered Clouds
11:16 PM 46.4 °F 42.9 °F 37.4 °F 71% 29.75 in 10.0 mi East 6.9 mph - N/A   Partly Cloudy
11:36 PM 44.6 °F 42.2 °F 37.4 °F 76% 29.75 in 10.0 mi East 4.6 mph - N/A   Partly Cloudy
11:56 PM 46.4 °F - 37.4 °F 71% 29.76 in 10.0 mi Calm Calm - N/A   Partly Cloudy